DUNNNINGN Weather Reports


Display with metric or nautical units.
time (UTC)temp
F
wind
direction
speed
MPH
gust
MPH
rain 1hr
in
rain 24hr
in
rain mn
in
humidity
%
barometer
mb
20260507023211 45 171 5.0 0.0 0.00 0.00 0.06 92 1011.6
20260507020211 45 171 2.0 0.0 0.00 0.00 0.04 92 1011.4
20260507013212 45 197 2.0 0.0 0.00 0.00 0.03 92 1011.2
20260507010211 45 194 3.0 0.0 0.00 0.00 0.03 91 1011.0
20260507003209 45 218 7.0 0.0 0.00 0.00 0.03 92 1010.9
20260507000209 45 188 9.0 0.0 0.00 0.00 0.03 92 1011.0
20260506233209 45 236 8.0 0.0 0.00 0.00 0.03 92 1011.0
20260506230209 46 252 5.0 0.0 0.00 0.00 0.03 92 1010.9
20260506223209 46 194 5.0 0.0 0.00 0.00 0.02 92 1011.1
20260506213209 46 188 4.0 0.0 0.00 0.00 0.27 92 1010.9
20260506210210 46 174 3.0 0.0 0.00 0.00 0.27 92 1010.5
20260506203210 47 225 4.0 0.0 0.00 0.00 0.25 91 1010.5
20260506200210 47 240 6.0 0.0 0.00 0.00 0.23 91 1010.3
20260506193215 47 204 6.0 0.0 0.00 0.00 0.19 91 1009.9
20260506190211 48 186 8.0 0.0 0.00 0.00 0.17 91 1009.5
20260506183209 48 184 5.0 0.0 0.00 0.00 0.14 91 1009.2
20260506180216 48 240 4.0 0.0 0.00 0.00 0.13 91 1008.9
20260506173210 48 205 6.0 0.0 0.00 0.00 0.12 91 1008.5
20260506170215 48 262 2.0 0.0 0.00 0.00 0.11 91 1008.3
20260506163210 49 252 6.0 0.0 0.00 0.00 0.09 89 1008.4
20260506160210 49 231 8.0 0.0 0.00 0.00 0.09 87 1008.3
20260506153210 51 234 9.0 0.0 0.00 0.00 0.08 88 1008.1
20260506150210 52 269 7.0 0.0 0.00 0.00 0.07 89 1007.7
20260506143210 52 230 5.0 0.0 0.00 0.00 0.06 91 1007.3
20260506140210 52 298 6.0 0.0 0.00 0.00 0.06 91 1006.9
20260506133211 52 246 10.0 0.0 0.00 0.00 0.06 91 1006.9
20260506130211 52 263 7.0 0.0 0.00 0.00 0.04 91 1006.5
20260506123210 52 290 8.0 0.0 0.00 0.00 0.04 90 1006.4
20260506120210 54 236 10.0 0.0 0.00 0.00 0.01 85 1006.3
20260506113217 55 265 5.0 0.0 0.00 0.00 0.01 78 1006.3
20260506110210 58 13 4.0 0.0 0.00 0.00 0.01 74 1006.1
20260506100213 59 224 3.0 0.0 0.00 0.00 0.01 69 1006.3
20260506093211 59 207 4.0 0.0 0.00 0.00 0.01 70 1006.5
20260506090211 58 185 4.0 0.0 0.00 0.00 0.01 72 1006.5
20260506083211 58 147 5.0 0.0 0.00 0.00 0.01 73 1006.4
20260506080212 57 197 8.0 0.0 0.00 0.00 0.01 77 1006.5
20260506073211 54 157 8.0 0.0 0.00 0.00 0.01 83 1006.5
20260506070212 52 159 4.0 0.0 0.00 0.00 0.01 88 1006.4
20260506060210 45 180 4.0 0.0 0.00 0.00 0.01 94 1006.7
20260506050211 43 165 5.0 0.0 0.00 0.00 0.00 93 1006.9
20260506043211 43 171 4.0 0.0 0.00 0.00 0.00 93 1007.2
20260506040211 43 165 4.0 0.0 0.00 0.00 0.00 92 1007.0
20260506033211 44 147 5.0 0.0 0.00 0.00 0.00 92 1007.0
20260506030212 44 157 2.0 0.0 0.00 0.00 0.00 92 1007.5